• Em Portugal
  • Lista de países
  • Para 7 dias
  • Temperatura da água
  • Mapas de satélite
  • Mapa do tempo
  • Widgets de tempo
  • user-avatar
    Iniciar Sessão

    Previsão horária em Abomey

    Hoje, 20 Outubro, Sábado

    Tempo Temperatura Precipitação Vento Pressão Humidade
    00:00 +26°C° 0 mm 1 m/s 737 mmHg 85%
    01:00 +26°C° 0 mm 1 m/s 737 mmHg 87%
    02:00 +25°C° 0 mm 1 m/s 737 mmHg 89%
    03:00 +25°C° 0 mm 1 m/s 737 mmHg 90%
    04:00 +25°C° 0 mm 1 m/s 737 mmHg 91%
    05:00 +25°C° 0 mm 1 m/s 737 mmHg 92%
    06:00 +24°C° 0 mm 1 m/s 737 mmHg 93%
    07:00 +27°C° 0 mm 1 m/s 738 mmHg 84%
    08:00 +29°C° 0 mm 1 m/s 738 mmHg 76%
    09:00 +31°C° 0 mm 1 m/s 739 mmHg 67%
    10:00 +32°C° 0 mm 1 m/s 738 mmHg 60%
    11:00 +34°C° 0 mm 1 m/s 738 mmHg 54%
    12:00 +36°C° 0 mm 1 m/s 737 mmHg 47%
    13:00 +37°C° 0 mm 2 m/s 737 mmHg 45%
    14:00 +37°C° 0 mm 2 m/s 736 mmHg 43%
    15:00 +37°C° 0 mm 2 m/s 736 mmHg 41%
    16:00 +35°C° 0 mm 2 m/s 736 mmHg 49%
    17:00 +32°C° 0 mm 2 m/s 736 mmHg 56%
    18:00 +30°C° 0 mm 2 m/s 736 mmHg 63%
    19:00 +29°C° 0 mm 2 m/s 737 mmHg 70%
    20:00 +28°C° 0 mm 2 m/s 737 mmHg 76%
    21:00 +27°C° 0 mm 3 m/s 738 mmHg 83%
    22:00 +27°C° 0 mm 2 m/s 737 mmHg 85%
    23:00 +26°C° 0 mm 2 m/s 737 mmHg 87%

    Amanhã, 21 Outubro, Domingo

    Tempo Temperatura Precipitação Vento Pressão Humidade
    00:00 +26°C° 0 mm 1 m/s 737 mmHg 89%
    01:00 +26°C° 0 mm 1 m/s 737 mmHg 91%
    02:00 +25°C° 0 mm 1 m/s 737 mmHg 92%
    03:00 +25°C° 0 mm 1 m/s 736 mmHg 94%
    04:00 +25°C° 0 mm 1 m/s 736 mmHg 94%
    05:00 +25°C° 0 mm 2 m/s 737 mmHg 95%
    06:00 +25°C° 0 mm 2 m/s 737 mmHg 96%
    07:00 +27°C° 0 mm 2 m/s 737 mmHg 86%
    08:00 +29°C° 0 mm 2 m/s 738 mmHg 77%
    09:00 +31°C° 0 mm 2 m/s 738 mmHg 68%
    10:00 +32°C° 0 mm 2 m/s 738 mmHg 61%
    11:00 +35°C° 0 mm 2 m/s 737 mmHg 54%
    12:00 +36°C° 0 mm 1 m/s 737 mmHg 48%
    13:00 +37°C° 0 mm 2 m/s 736 mmHg 47%
    14:00 +37°C° 0 mm 2 m/s 736 mmHg 46%
    15:00 +37°C° 0 mm 2 m/s 735 mmHg 44%
    16:00 +35°C° 0 mm 2 m/s 736 mmHg 51%
    17:00 +32°C° 0 mm 2 m/s 736 mmHg 58%
    18:00 +30°C° 0 mm 3 m/s 736 mmHg 65%
    19:00 +29°C° 0.1 mm 3 m/s 737 mmHg 71%
    20:00 +28°C° 0.1 mm 3 m/s 738 mmHg 77%
    21:00 +27°C° 0.1 mm 3 m/s 738 mmHg 82%
    22:00 +27°C° 0.1 mm 3 m/s 738 mmHg 85%
    23:00 +26°C° 0.1 mm 3 m/s 738 mmHg 87%

    Depois de amanhã, 22 Outubro, Segunda-feira

    Tempo Temperatura Precipitação Vento Pressão Humidade
    00:00 +26°C° 0.1 mm 2 m/s 738 mmHg 89%
    01:00 +26°C° 0 mm 2 m/s 737 mmHg 90%
    02:00 +26°C° 0 mm 2 m/s 737 mmHg 91%
    03:00 +25°C° 0 mm 2 m/s 736 mmHg 92%
    04:00 +25°C° 0 mm 2 m/s 737 mmHg 92%
    05:00 +25°C° 0 mm 2 m/s 737 mmHg 92%
    06:00 +25°C° 0 mm 2 m/s 737 mmHg 92%
    07:00 +27°C° 0 mm 2 m/s 738 mmHg 84%
    08:00 +29°C° 0 mm 2 m/s 738 mmHg 75%
    09:00 +31°C° 0 mm 3 m/s 739 mmHg 67%
    10:00 +32°C° 0 mm 2 m/s 738 mmHg 62%
    11:00 +34°C° 0 mm 2 m/s 738 mmHg 57%
    12:00 +35°C° 0 mm 2 m/s 737 mmHg 52%
    13:00 +35°C° 0 mm 2 m/s 737 mmHg 52%
    14:00 +35°C° 0 mm 2 m/s 736 mmHg 53%
    15:00 +35°C° 0 mm 2 m/s 736 mmHg 53%
    16:00 +32°C° 0.8 mm 2 m/s 736 mmHg 62%
    17:00 +30°C° 0.8 mm 2 m/s 736 mmHg 70%
    18:00 +29°C° 0.8 mm 2 m/s 737 mmHg 79%
    19:00 +28°C° 0.1 mm 2 m/s 737 mmHg 82%
    20:00 +27°C° 0.1 mm 2 m/s 738 mmHg 85%
    21:00 +27°C° 0.1 mm 2 m/s 739 mmHg 88%
    22:00 +26°C° 0 mm 2 m/s 739 mmHg 89%
    23:00 +26°C° 0 mm 2 m/s 739 mmHg 90%

    23 Outubro, Terça-feira

    Tempo Temperatura Precipitação Vento Pressão Humidade
    00:00 +26°C° 0 mm 2 m/s 738 mmHg 91%
    01:00 +26°C° 0 mm 2 m/s 738 mmHg 91%
    02:00 +25°C° 0 mm 2 m/s 737 mmHg 92%
    03:00 +25°C° 0 mm 2 m/s 737 mmHg 93%
    04:00 +25°C° 0 mm 2 m/s 737 mmHg 93%
    05:00 +25°C° 0 mm 2 m/s 738 mmHg 94%
    06:00 +25°C° 0 mm 2 m/s 738 mmHg 94%
    07:00 +27°C° 0 mm 2 m/s 738 mmHg 85%
    08:00 +29°C° 0 mm 2 m/s 739 mmHg 76%
    09:00 +31°C° 0 mm 2 m/s 739 mmHg 68%
    10:00 +32°C° 0 mm 2 m/s 739 mmHg 61%
    11:00 +35°C° 0 mm 2 m/s 738 mmHg 55%
    12:00 +36°C° 0 mm 2 m/s 738 mmHg 49%
    13:00 +36°C° 0 mm 2 m/s 737 mmHg 50%
    14:00 +36°C° 0 mm 2 m/s 737 mmHg 50%
    15:00 +36°C° 0 mm 2 m/s 736 mmHg 51%
    16:00 +34°C° 0.2 mm 2 m/s 737 mmHg 59%
    17:00 +31°C° 0.2 mm 3 m/s 737 mmHg 67%
    18:00 +29°C° 0.2 mm 3 m/s 737 mmHg 75%
    19:00 +29°C° 0 mm 3 m/s 738 mmHg 77%
    20:00 +28°C° 0 mm 3 m/s 738 mmHg 80%
    21:00 +27°C° 0 mm 3 m/s 739 mmHg 83%
    22:00 +27°C° 0 mm 3 m/s 739 mmHg 84%
    23:00 +27°C° 0 mm 3 m/s 738 mmHg 86%

    24 Outubro, Quarta-feira

    Tempo Temperatura Precipitação Vento Pressão Humidade
    00:00 +26°C° 0 mm 2 m/s 738 mmHg 88%
    01:00 +26°C° 0 mm 2 m/s 738 mmHg 89%
    02:00 +26°C° 0 mm 2 m/s 737 mmHg 91%
    03:00 +26°C° 0 mm 2 m/s 737 mmHg 92%
    04:00 +25°C° 0 mm 2 m/s 737 mmHg 93%
    05:00 +25°C° 0 mm 2 m/s 738 mmHg 93%
    06:00 +25°C° 0 mm 2 m/s 738 mmHg 94%
    07:00 +27°C° 0 mm 2 m/s 739 mmHg 87%
    08:00 +29°C° 0 mm 2 m/s 739 mmHg 79%
    09:00 +30°C° 0 mm 3 m/s 739 mmHg 72%
    10:00 +31°C° 0 mm 3 m/s 739 mmHg 68%
    11:00 +33°C° 0 mm 3 m/s 738 mmHg 65%
    12:00 +34°C° 0 mm 3 m/s 738 mmHg 61%
    13:00 +34°C° 0.3 mm 3 m/s 737 mmHg 61%
    14:00 +34°C° 0.3 mm 3 m/s 737 mmHg 61%
    15:00 +34°C° 0.3 mm 3 m/s 736 mmHg 61%
    16:00 +32°C° 0.4 mm 2 m/s 737 mmHg 68%
    17:00 +30°C° 0.4 mm 2 m/s 737 mmHg 74%
    18:00 +29°C° 0.4 mm 2 m/s 737 mmHg 81%
    19:00 +28°C° 0.1 mm 2 m/s 738 mmHg 84%
    20:00 +27°C° 0.1 mm 2 m/s 738 mmHg 86%
    21:00 +27°C° 0.1 mm 2 m/s 738 mmHg 89%
    22:00 +26°C° 0 mm 2 m/s 738 mmHg 90%
    23:00 +26°C° 0 mm 2 m/s 738 mmHg 92%

    25 Outubro, Quinta-feira

    Tempo Temperatura Precipitação Vento Pressão Humidade
    00:00 +26°C° 0 mm 2 m/s 738 mmHg 93%
    01:00 +25°C° 0 mm 2 m/s 737 mmHg 94%
    02:00 +25°C° 0 mm 2 m/s 737 mmHg 95%
    03:00 +25°C° 0 mm 1 m/s 736 mmHg 96%
    04:00 +25°C° 0 mm 1 m/s 737 mmHg 96%
    05:00 +25°C° 0 mm 1 m/s 737 mmHg 96%
    06:00 +25°C° 0 mm 1 m/s 737 mmHg 96%
    07:00 +27°C° 0 mm 2 m/s 738 mmHg 88%
    08:00 +29°C° 0 mm 2 m/s 738 mmHg 79%
    09:00 +30°C° 0 mm 2 m/s 739 mmHg 70%
    10:00 +31°C° 0 mm 2 m/s 738 mmHg 66%
    11:00 +32°C° 0 mm 2 m/s 737 mmHg 61%
    12:00 +34°C° 0 mm 2 m/s 737 mmHg 57%
    13:00 +35°C° 0 mm 2 m/s 736 mmHg 57%
    14:00 +35°C° 0 mm 2 m/s 736 mmHg 56%
    15:00 +35°C° 0 mm 2 m/s 735 mmHg 55%
    16:00 +32°C° 0 mm 2 m/s 736 mmHg 61%
    17:00 +31°C° 0 mm 2 m/s 736 mmHg 66%
    18:00 +30°C° 0 mm 2 m/s 737 mmHg 71%
    19:00 +29°C° 0.3 mm 2 m/s 737 mmHg 76%
    20:00 +28°C° 0.3 mm 2 m/s 737 mmHg 81%
    21:00 +27°C° 0.3 mm 2 m/s 738 mmHg 86%
    22:00 +26°C° 0 mm 2 m/s 738 mmHg 87%
    23:00 +26°C° 0 mm 2 m/s 737 mmHg 89%
    Mostrar mais